Wind_Speed
17 16 17 17 17 18 19 19 20 24 27 23 24 23 26 23 21 21 20 20 21 22 25 29 34 40 45 49 51 45 49 51 45 36 34 24 11 12 14 12 16 20 31 35
18 16 17 18 17 17 17 17 19 22 23 22 22 21 23 22 21 20 19 19 20 21 23 27 31 38 43 48 52 46 50 48 43 38 35 18 8 10 14 14 15 19 25 36
19 18 18 18 16 16 17 19 21 21 21 21 23 18 21 21 20 20 17 18 19 19 23 26 29 36 41 46 51 48 49 46 42 39 32 17 12 8 8 10 12 16 28 36
18 19 18 18 18 18 18 20 21 20 19 20 20 18 18 19 18 17 17 18 18 18 22 25 28 34 40 44 50 52 48 46 41 38 30 18 10 4 7 10 11 15 26 37
20 20 19 19 20 20 20 21 21 19 19 20 21 19 18 18 17 17 19 18 18 16 21 24 27 32 38 42 47 52 46 44 42 35 28 18 11 10 9 10 10 14 23 42
22 22 22 22 24 24 23 23 23 19 19 19 21 19 16 17 17 18 17 17 17 16 19 23 27 29 35 40 44 49 44 44 40 35 26 19 16 15 10 9 7 10 23 41
25 24 23 23 24 23 23 25 26 23 18 18 20 20 18 17 18 19 17 16 17 17 18 21 26 28 33 37 42 45 44 41 37 32 23 17 17 18 13 8 7 9 24 39
30 27 26 25 24 25 25 26 26 27 21 15 18 22 19 18 18 18 16 15 17 17 18 20 23 26 30 34 38 42 44 38 39 30 27 25 18 16 16 11 9 17 25 37
33 30 27 26 23 23 24 25 26 27 25 19 16 21 23 20 20 18 15 16 17 17 17 19 21 24 26 31 34 38 43 36 35 36 27 19 20 21 9 12 7 12 10 39
34 33 30 28 26 25 25 26 26 26 29 26 18 18 24 21 21 20 17 16 17 15 16 18 18 21 25 27 31 33 39 40 35 33 36 27 16 15 19 19 21 15 22 37
33 34 34 33 29 28 27 27 27 27 25 28 25 16 27 25 19 21 15 14 17 15 15 17 16 19 21 25 28 31 33 40 31 34 36 34 22 19 18 15 11 20 20 35
35 38 39 36 36 33 29 29 28 28 26 24 25 17 25 25 21 19 13 12 16 15 13 14 16 16 18 22 24 27 29 34 39 31 34 38 28 21 16 20 18 21 25 31
41 45 43 41 39 36 33 31 29 27 25 20 21 15 24 27 22 17 12 13 14 14 12 12 14 16 16 18 22 23 25 27 33 36 31 34 36 24 18 15 13 14 21 28
46 50 48 44 43 39 36 32 30 26 25 25 19 17 25 33 24 17 13 14 16 14 12 12 13 15 17 15 17 21 20 24 26 31 33 29 32 35 28 13 13 16 17 15
52 53 50 47 45 44 40 34 33 24 25 23 18 17 25 32 26 22 16 14 15 15 14 12 13 14 17 15 14 16 19 19 22 24 28 32 30 27 32 34 17 8 13 15
56 56 53 49 47 47 45 38 33 24 22 20 19 9 26 24 23 21 19 15 14 13 13 12 13 13 15 16 11 13 14 16 17 20 22 25 28 32 28 28 33 30 18 12
61 60 54 50 47 48 45 38 29 26 21 20 17 15 22 26 22 22 20 18 15 13 13 12 12 12 13 14 13 9 11 13 14 14 16 20 21 23 26 30 29 28 26 27
62 61 55 51 49 51 44 38 28 26 24 23 19 18 22 21 22 24 22 21 19 14 13 14 13 13 14 13 14 10 9 11 11 12 12 13 15 18 18 19 22 24 27 24
61 62 57 54 52 50 46 40 27 29 21 23 21 22 21 23 22 23 21 21 21 18 15 14 15 14 14 13 14 13 9 9 10 9 9 8 8 9 12 14 15 14 15 17
59 58 58 56 53 49 45 42 34 26 23 20 28 27 21 20 21 23 22 20 21 23 20 16 16 16 15 15 14 14 12 10 10 10 9 8 7 6 5 5 7 9 10 11
58 59 59 56 51 49 49 41 38 27 22 30 32 27 27 19 19 20 22 21 19 21 22 20 16 16 17 17 15 16 15 14 13 12 12 11 8 7 6 6 5 4 1 2
62 60 61 59 56 55 49 43 34 28 31 28 27 26 27 21 16 18 21 21 20 18 17 18 17 17 18 18 18 17 17 17 15 16 16 15 13 11 9 8 9 9 8 8
65 65 60 55 48 45 40 37 36 32 30 31 32 31 29 26 20 19 21 25 22 21 18 17 17 16 18 20 19 19 20 21 22 21 20 18 17 16 14 12 12 12 12 12
50 52 56 57 50 46 44 42 40 36 32 34 34 35 32 29 23 24 23 24 24 24 23 20 20 18 17 19 19 19 18 20 23 23 23 22 22 22 21 20 17 16 16 16
46 47 44 45 48 46 43 40 34 36 40 42 38 37 34 33 26 26 27 28 28 26 26 23 23 23 24 23 22 21 20 19 19 20 22 24 26 26 27 26 25 24 23 21
48 43 41 37 39 39 39 40 41 42 46 45 40 40 33 32 26 27 31 34 32 30 30 28 24 25 26 25 24 23 23 21 21 22 23 24 26 28 28 29 29 29 30 30
Wind_Direction
271 270 276 281 285 291 292 294 297 305 304 304 298 295 294 304 307 309 312 321 330 328 337 347 357 353 350 351 353 344 344 344 341 333 328 334 313 281 241 248 237 226 211 208
271 269 276 281 286 289 293 297 302 308 308 307 304 298 297 302 307 310 312 318 326 325 335 345 0 355 353 352 355 350 348 348 352 338 342 342 318 286 244 243 243 228 214 207
271 271 275 281 288 293 300 301 309 315 313 311 304 303 296 300 306 305 312 314 321 324 335 344 360 358 355 353 356 354 354 356 356 349 354 359 330 298 238 258 247 238 212 205
270 269 273 280 286 292 299 302 312 316 314 307 302 307 298 306 307 310 313 310 319 325 336 345 357 1 357 354 358 358 357 3 3 3 9 5 353 325 286 286 269 234 212 204
269 269 274 280 285 292 297 301 306 313 313 309 304 307 308 309 313 313 308 308 315 323 334 345 355 6 3 357 358 359 0 4 10 10 12 15 23 4 319 289 277 221 200 203
268 268 275 279 284 289 294 297 299 306 311 311 308 308 306 311 316 310 309 310 315 318 330 346 351 5 6 2 357 1 2 9 17 16 19 25 21 6 346 320 300 217 189 196
271 271 275 284 286 286 291 295 298 299 302 308 308 307 306 307 310 315 317 311 315 313 321 339 348 359 9 6 1 4 4 11 22 22 18 21 16 16 18 5 20 197 176 185
268 270 272 282 285 283 287 292 297 299 302 303 306 308 309 305 306 313 322 315 311 312 313 329 343 352 13 11 9 6 9 12 22 26 25 28 34 29 35 22 49 113 145 173
260 265 270 275 282 284 282 288 292 296 297 301 301 304 306 303 302 301 306 316 303 307 311 321 336 349 5 15 14 11 13 12 20 24 23 28 28 54 43 37 49 86 126 171
257 261 267 271 277 282 286 286 292 292 294 298 302 303 305 305 302 300 305 301 297 302 308 316 330 345 356 17 18 15 17 18 23 27 38 29 21 34 44 84 65 88 134 145
250 257 261 268 274 277 283 287 289 292 295 296 300 300 294 304 303 299 301 295 294 294 301 312 325 338 357 4 20 24 20 22 27 29 37 41 44 53 65 111 97 124 130 151
250 252 257 265 269 274 279 282 284 286 294 302 298 306 292 294 301 309 323 284 295 288 293 307 322 334 348 359 12 26 27 28 30 35 40 47 47 63 71 92 94 84 124 142
248 251 256 260 266 272 273 276 281 282 289 300 293 305 291 285 291 311 314 298 301 290 286 299 315 327 340 353 2 19 31 33 35 39 42 51 56 56 63 82 93 106 106 121
244 250 253 258 263 268 271 273 274 276 287 287 300 290 286 281 291 305 304 298 298 295 283 291 305 318 332 342 358 3 26 38 40 42 46 51 57 60 61 75 84 97 117 134
241 248 252 256 259 262 265 266 268 275 282 293 286 298 268 278 293 296 303 297 295 277 287 283 291 305 316 332 345 359 7 27 44 47 48 52 57 59 64 65 80 112 139 136
237 245 250 252 257 258 261 258 261 273 280 288 292 285 276 276 285 291 295 301 303 287 284 286 279 289 301 316 333 349 0 7 21 41 52 56 53 63 67 71 72 77 84 117
232 239 245 250 256 255 253 254 261 268 273 278 286 283 272 280 280 282 285 287 294 299 281 279 277 276 283 299 315 338 349 360 5 19 38 55 64 60 60 69 75 81 83 89
237 243 246 250 255 251 253 253 251 261 265 275 281 277 279 278 279 273 274 278 279 287 284 274 269 269 270 279 293 311 333 347 356 1 14 35 55 68 73 71 71 80 86 91
245 241 248 247 252 249 249 246 240 251 256 271 275 271 278 277 274 274 274 273 270 274 274 274 266 260 261 263 274 285 302 317 336 352 356 5 27 47 74 82 87 90 87 97
235 238 241 245 245 241 244 248 250 245 251 255 264 271 272 275 274 270 270 272 270 266 266 267 266 257 256 255 261 268 274 285 305 317 334 339 339 348 10 50 94 109 117 120
234 236 237 239 239 237 241 248 251 251 258 242 252 264 272 272 273 271 269 276 272 268 266 263 263 258 251 253 252 260 267 271 277 293 304 313 313 316 316 324 339 343 355 149
235 236 236 235 236 239 242 249 260 253 240 252 257 261 264 262 269 269 264 267 268 271 265 254 262 259 251 250 249 251 257 263 269 274 280 290 298 298 296 302 305 301 295 295
237 238 239 240 241 247 250 254 250 248 244 248 252 255 256 256 260 269 264 262 262 265 273 259 256 258 250 251 253 256 261 265 268 270 270 271 281 287 291 292 291 293 299 298
239 238 238 243 240 241 243 250 249 248 246 246 244 249 255 252 250 265 261 261 259 263 271 271 262 258 255 253 253 258 268 270 269 270 270 273 278 282 285 284 285 286 287 289
236 235 234 240 237 238 241 244 248 247 245 249 247 248 252 254 250 254 256 252 254 257 256 260 265 269 266 263 262 264 262 262 265 265 267 273 276 278 280 285 285 285 284 281
221 220 231 235 236 242 242 240 239 241 242 247 254 257 251 254 247 249 249 254 252 261 255 250 255 265 267 269 269 270 269 264 267 271 273 274 276 275 278 277 278 282 284 284
Height
5793 5794 5793 5792 5791 5791 5790 5790 5789 5787 5785 5784 5781 5781 5779 5778 5776 5773 5771 5768 5765 5760 5756 5750 5743 5734 5724 5712 5700 5688 5676 5662 5650 5639 5630 5622 5618 5619 5620 5622 5624 5626 5631 5639
5790 5789 5789 5788 5787 5786 5786 5785 5784 5783 5779 5778 5777 5777 5775 5773 5771 5769 5767 5764 5761 5757 5752 5747 5740 5731 5721 5710 5698 5685 5672 5658 5646 5634 5626 5619 5617 5617 5617 5620 5621 5623 5627 5634
5785 5787 5785 5785 5783 5783 5782 5781 5780 5779 5776 5774 5771 5773 5770 5769 5767 5765 5763 5761 5757 5753 5749 5744 5738 5729 5719 5708 5697 5683 5670 5656 5644 5632 5624 5618 5617 5615 5616 5618 5618 5619 5623 5629
5781 5782 5781 5781 5779 5779 5778 5777 5776 5775 5773 5771 5768 5769 5766 5765 5763 5762 5760 5757 5754 5750 5746 5742 5735 5727 5718 5707 5696 5682 5668 5656 5644 5632 5624 5620 5617 5616 5615 5614 5614 5615 5618 5624
5779 5777 5777 5776 5775 5775 5775 5773 5772 5771 5769 5768 5766 5765 5762 5760 5760 5758 5756 5754 5751 5748 5744 5739 5733 5726 5717 5706 5695 5683 5670 5656 5645 5635 5626 5622 5618 5616 5614 5612 5610 5611 5613 5620
5773 5773 5773 5772 5771 5770 5769 5769 5768 5767 5766 5765 5762 5762 5760 5758 5756 5753 5751 5751 5749 5745 5742 5738 5732 5725 5717 5706 5695 5683 5671 5659 5648 5638 5631 5625 5621 5617 5613 5610 5608 5608 5611 5618
5768 5767 5767 5767 5766 5765 5765 5764 5763 5763 5763 5762 5759 5758 5756 5755 5753 5751 5749 5747 5746 5743 5740 5736 5731 5724 5717 5708 5696 5686 5673 5663 5652 5642 5634 5629 5623 5618 5615 5612 5609 5606 5611 5619
5761 5762 5762 5762 5761 5761 5760 5760 5759 5755 5757 5759 5756 5753 5752 5750 5749 5748 5745 5744 5742 5740 5737 5734 5729 5724 5718 5709 5699 5688 5676 5667 5656 5645 5638 5633 5627 5622 5620 5617 5616 5613 5617 5625
5755 5756 5757 5757 5756 5757 5755 5755 5755 5752 5751 5752 5754 5752 5748 5746 5745 5744 5742 5740 5739 5737 5735 5732 5729 5724 5718 5711 5701 5692 5681 5670 5661 5652 5643 5637 5632 5628 5625 5623 5623 5622 5623 5629
5747 5749 5750 5750 5751 5750 5750 5750 5749 5747 5745 5745 5749 5748 5743 5742 5741 5740 5738 5736 5735 5734 5732 5730 5728 5723 5718 5712 5705 5695 5686 5676 5667 5658 5650 5642 5637 5633 5631 5632 5630 5629 5630 5638
5740 5742 5744 5744 5745 5744 5745 5744 5743 5742 5742 5740 5741 5745 5738 5736 5737 5736 5734 5732 5730 5731 5730 5728 5726 5723 5718 5713 5707 5700 5691 5682 5673 5665 5657 5647 5641 5640 5637 5637 5639 5640 5642 5646
5731 5731 5733 5736 5736 5738 5739 5738 5737 5737 5737 5737 5735 5740 5733 5731 5732 5733 5731 5728 5727 5727 5727 5726 5724 5722 5718 5714 5710 5704 5696 5688 5680 5672 5664 5655 5649 5648 5646 5644 5644 5646 5649 5652
5721 5721 5724 5727 5729 5731 5731 5732 5731 5731 5731 5733 5731 5733 5728 5725 5727 5730 5727 5724 5723 5724 5724 5723 5722 5720 5718 5715 5711 5707 5701 5694 5687 5679 5672 5665 5658 5654 5652 5652 5652 5654 5656 5659
5711 5712 5715 5719 5720 5722 5723 5724 5724 5725 5726 5726 5728 5726 5722 5718 5723 5725 5724 5722 5719 5720 5720 5720 5719 5718 5717 5715 5712 5708 5704 5699 5692 5686 5680 5673 5668 5663 5660 5658 5659 5661 5663 5667
5699 5701 5706 5709 5711 5711 5713 5714 5716 5721 5720 5720 5721 5722 5718 5713 5717 5719 5719 5718 5716 5716 5716 5716 5716 5716 5715 5714 5711 5710 5706 5702 5697 5692 5687 5682 5676 5672 5668 5665 5663 5666 5669 5672
5686 5689 5695 5699 5702 5702 5703 5704 5709 5714 5715 5714 5714 5716 5708 5712 5713 5713 5713 5713 5712 5712 5712 5712 5712 5713 5712 5712 5711 5709 5707 5704 5701 5697 5693 5689 5685 5681 5676 5673 5671 5669 5671 5674
5673 5677 5684 5688 5692 5692 5691 5698 5704 5706 5708 5707 5708 5709 5706 5706 5708 5708 5708 5708 5708 5707 5708 5708 5708 5709 5709 5709 5709 5708 5707 5705 5703 5700 5697 5694 5691 5688 5685 5682 5678 5676 5677 5679
5663 5669 5673 5677 5681 5680 5684 5689 5697 5699 5699 5699 5701 5701 5699 5701 5701 5701 5702 5702 5702 5702 5703 5703 5704 5704 5705 5705 5706 5706 5705 5705 5704 5702 5700 5698 5695 5694 5692 5691 5688 5686 5684 5684
5652 5658 5661 5663 5668 5671 5673 5677 5690 5691 5695 5691 5693 5693 5693 5694 5695 5695 5695 5696 5697 5697 5698 5698 5699 5700 5701 5702 5702 5703 5703 5703 5703 5702 5701 5699 5699 5697 5696 5695 5694 5694 5694 5692
5637 5643 5649 5650 5654 5657 5664 5671 5678 5686 5687 5686 5684 5685 5687 5688 5689 5690 5690 5689 5691 5692 5692 5693 5693 5695 5696 5697 5698 5699 5699 5699 5700 5700 5700 5699 5699 5698 5698 5697 5697 5697 5696 5697
5621 5627 5632 5638 5643 5650 5654 5661 5669 5678 5684 5677 5677 5678 5681 5680 5682 5683 5684 5685 5685 5685 5686 5687 5687 5689 5690 5692 5693 5694 5695 5695 5696 5697 5697 5697 5697 5697 5697 5697 5697 5697 5697 5697
5610 5615 5620 5625 5631 5638 5645 5653 5665 5667 5666 5668 5671 5671 5674 5674 5674 5676 5677 5678 5679 5679 5680 5681 5682 5682 5684 5686 5687 5688 5689 5690 5691 5692 5693 5693 5693 5694 5694 5694 5695 5695 5695 5696
5594 5602 5610 5616 5625 5632 5637 5646 5648 5655 5658 5659 5661 5662 5665 5667 5668 5670 5671 5672 5673 5674 5675 5675 5676 5677 5678 5680 5682 5683 5684 5685 5686 5687 5687 5688 5689 5689 5689 5689 5690 5691 5691 5692
5585 5592 5599 5608 5614 5620 5626 5634 5638 5644 5647 5648 5649 5652 5655 5659 5660 5663 5664 5666 5666 5668 5670 5670 5671 5672 5673 5674 5675 5676 5678 5679 5680 5681 5682 5683 5684 5684 5685 5685 5684 5684 5685 5685
5575 5581 5590 5597 5603 5609 5615 5623 5629 5631 5633 5635 5637 5642 5646 5651 5651 5655 5657 5657 5658 5660 5662 5664 5665 5666 5667 5668 5669 5670 5670 5671 5672 5674 5675 5676 5677 5677 5678 5678 5679 5679 5679 5679
5562 5571 5578 5587 5597 5602 5606 5608 5611 5615 5619 5622 5626 5632 5638 5643 5642 5645 5649 5650 5651 5653 5654 5656 5658 5660 5661 5661 5663 5663 5664 5665 5666 5667 5668 5669 5669 5669 5670 5670 5671 5672 5672 5672